Regional Weather Roundup
Issued by NWS Charleston, WV

Home | Current Version | Previous Version | Graphics & Text | Print | Product List | Glossary On
Versions: 1 2 3 4 5 6 7 8 9 10 11 12 13 14 15 16 17 18 19 20 21 22 23 24 25 26 27 28 29 30 31 32 33 34 35 36 37 38 39 40 41 42 43 44 45 46 47 48 49 50
000
ASUS41 KRLX 180510
RWRRLX
West Virginia Regional Weather Roundup
National Weather Service Charleston WV
100 AM EDT FRI AUG 18 2017

Note: "fair" indicates few or no clouds below 12,000 feet with no
significant weather and/or obstructions to visibility.

WVZ003-180600-
Northern Panhandle of West Virginia

CITY           SKY/WX    TMP DP  RH WIND       PRES   REMARKS
WHEELING       LGT RAIN  72  69  90 S17G25    29.89F
$$

WVZ009-180600-
Northwest West Virginia

CITY           SKY/WX    TMP DP  RH WIND       PRES   REMARKS
PARKERSBURG    CLOUDY    73  72  96 CALM      29.92F
$$

WVZ006-180600-
Western West Virginia

CITY           SKY/WX    TMP DP  RH WIND       PRES   REMARKS
HUNTINGTON     LGT RAIN  79  71  76 W6        29.91R
$$

WVZ015-180600-
West Central West Virginia

CITY           SKY/WX    TMP DP  RH WIND       PRES   REMARKS
CHARLESTON     CLEAR     78  71  79 S3        29.91F
$$

WVZ022-031-180600-
North Central West Virginia

CITY           SKY/WX    TMP DP  RH WIND       PRES   REMARKS
CLARKSBURG     PTCLDY    75  71  87 S3        29.91F
MORGANTOWN     CLOUDY    74  70  87 S3        29.92F
$$

WVZ025-035-042-045-180600-
Southern West Virginia

CITY           SKY/WX    TMP DP  RH WIND       PRES   REMARKS
BECKLEY        CLEAR     72  68  87 SW6       30.03F
LOGAN            N/A     75  72  88 CALM      29.97S
BLUEFIELD      CLEAR     69  66  90 W6        30.07F
LEWISBURG      FOG       67  66  98 CALM      30.03F VSB 1
$$

WVZ047-180600-
Northern Mountains of West Virginia

CITY           SKY/WX    TMP DP  RH WIND       PRES   REMARKS
ELKINS         CLEAR     69  66  90 CALM      29.99S FOG
$$

WVZ052-180600-
Eastern Panhandle of West Virginia

CITY           SKY/WX    TMP DP  RH WIND       PRES   REMARKS
MARTINSBURG    PTCLDY    75  73  93 CALM      29.88F
PETERSBURG     CLOUDY    74  73  94 CALM      29.92S
$$



USA.gov is the U.S. government's official web portal to all federal, state and local government web resources and services.